Regional Weather Roundup
Issued by NWS

Home | Current Version | Previous Version | Text Only | Print | Product List | Glossary Off
Versions: 1 2 3 4 5 6 7 8 9 10 11 12 13 14 15 16 17 18 19 20 21 22 23 24 25 26 27 28 29 30 31 32 33 34 35 36 37 38 39 40 41 42 43 44 45 46 47 48 49 50

000
ASUS43 KLMK 071102
RWRKY
KENTUCKY REGIONAL WEATHER ROUNDUP
NATIONAL WEATHER SERVICE LOUISVILLE KY
600 AM EST SUN FEB 07 2016

NOTE "FAIR" INDICATES FEW OR NO CLOUDS BELOW 12,000 FEET
WITH NO SIGNIFICANT WEATHER AND/OR OBSTRUCTIONS TO VISIBILITY.

KYZ001>023-026-027-061>063-070>075-071200-
WESTERN AND SOUTH CENTRAL KENTUCKY

CITY           SKY/WX    TMP DP  RH WIND       PRES   REMARKS
PADUCAH        CLEAR     30  21  69 SW6       30.18S WCI  24
HENDERSON      CLEAR     28  19  69 SW8       30.16F WCI  20
OWENSBORO      CLEAR     32  24  72 S5        30.17F HAZE    WCI  27
HOPKINSVILLE   CLEAR     30  22  70 SW1       30.19S
BOWLING GREEN  CLEAR     27  24  89 CALM      30.20S
GLASGOW        NOT AVBL
$$

KYZ024-025-028>034-038-045-046-053-071200-
NORTH CENTRAL KENTUCKY

CITY           SKY/WX    TMP DP  RH WIND       PRES   REMARKS
LOUISVILLE/SDF PTCLDY    36  21  54 SW3       30.15F
LOUISVILLE/LOU CLEAR     29  23  78 CALM      30.16F
FORT KNOX      CLEAR     29  20  71 SW6       30.14F WCI  23
$$

KYZ035>037-039>044-047>052-055>060-089>105-071200-
NORTHEAST KENTUCKY

CITY           SKY/WX    TMP DP  RH WIND       PRES   REMARKS
LEXINGTON      CLEAR     31  21  66 SW5       30.15F WCI  26
COVINGTON      CLEAR     32  23  69 SW7       30.12F WCI  26
FRANKFORT      CLEAR     24  19  81 SW3       30.14F
$$

KYZ054-064>069-076>088-106>120-071200-
SOUTHEAST KENTUCKY

CITY           SKY/WX    TMP DP  RH WIND       PRES   REMARKS
JACKSON        CLEAR     30  21  69 S3        30.16R
LONDON         CLEAR     24  20  84 CALM      30.18R
SOMERSET       NOT AVBL
MIDDLESBORO    NOT AVBL
MONTICELLO     SUNNY     18  16  92 CALM      30.20S
$$




USA.gov is the U.S. government's official web portal to all federal, state and local government web resources and services.